SHT21N EGJB-EGLL

Flight info

Callsign SHT21N
Flight time 0h 31m
Altitude 19000
Route ORIST1F ORIST L982 ROXOG ROXOG1H
Aircraft A21N/M-SDE3FGIJ1LRWXYZ/SB1G1

Departure

Time 2026-04-22 15:41
Airport Guernsey Airport (EGJB)

Arrival

Time 2026-04-22 16:13
Airport London Heathrow Airport (EGLL)
Time Latitude Longitude Altitude Speed Heading
2026-04-22 15:09 49.43266 -2.59688 350 ft 0 kts 178°
2026-04-22 15:29 49.43282 -2.59689 359 ft 4 kts 179°
2026-04-22 15:30 49.43328 -2.59687 350 ft 4 kts 188°
2026-04-22 15:30 49.43358 -2.59669 360 ft 4 kts 236°
2026-04-22 15:30 49.43362 -2.59656 355 ft 0 kts 267°
2026-04-22 15:35 49.43362 -2.59659 360 ft 2 kts 267°
2026-04-22 15:35 49.43361 -2.59692 352 ft 4 kts 263°
2026-04-22 15:36 49.43353 -2.59749 357 ft 7 kts 258°
2026-04-22 15:36 49.43346 -2.59829 351 ft 8 kts 266°
2026-04-22 15:36 49.43344 -2.59899 350 ft 6 kts 268°
2026-04-22 15:36 49.43343 -2.59976 350 ft 8 kts 268°
2026-04-22 15:37 49.43340 -2.60075 348 ft 10 kts 267°
2026-04-22 15:37 49.43337 -2.60171 346 ft 8 kts 267°
2026-04-22 15:37 49.43334 -2.60260 343 ft 9 kts 267°
2026-04-22 15:37 49.43331 -2.60364 336 ft 10 kts 268°
2026-04-22 15:38 49.43328 -2.60482 335 ft 12 kts 268°
2026-04-22 15:38 49.43346 -2.60759 331 ft 14 kts 280°
2026-04-22 15:38 49.43359 -2.60870 328 ft 11 kts 279°
2026-04-22 15:39 49.43364 -2.60987 325 ft 11 kts 268°
2026-04-22 15:39 49.43360 -2.61113 324 ft 12 kts 268°
2026-04-22 15:39 49.43358 -2.61211 321 ft 8 kts 270°
2026-04-22 15:39 49.43384 -2.61292 319 ft 9 kts 309°
2026-04-22 15:40 49.43419 -2.61346 318 ft 7 kts 334°
2026-04-22 15:40 49.43451 -2.61345 318 ft 1 kts 31°
2026-04-22 15:40 49.43464 -2.61321 318 ft 5 kts 71°
2026-04-22 15:40 49.43465 -2.61291 319 ft 0 kts 86°
2026-04-22 15:41 49.43465 -2.61286 319 ft 8 kts 86°
2026-04-22 15:41 49.43485 -2.60674 333 ft 103 kts 88°
2026-04-22 15:41 49.43535 -2.59281 715 ft 139 kts 84°
2026-04-22 15:41 49.43552 -2.57789 1713 ft 142 kts 90°
2026-04-22 15:42 49.43575 -2.56126 2163 ft 169 kts 89°
2026-04-22 15:42 49.43642 -2.54241 2886 ft 183 kts 90°
2026-04-22 15:42 49.43695 -2.52219 3669 ft 198 kts 87°
2026-04-22 15:42 49.44235 -2.50102 4184 ft 230 kts 62°
2026-04-22 15:43 49.45172 -2.48044 4983 ft 243 kts 60°
2026-04-22 15:43 49.46184 -2.45832 5633 ft 259 kts 60°
2026-04-22 15:43 49.47225 -2.43522 6525 ft 266 kts 60°
2026-04-22 15:43 49.48282 -2.41173 7448 ft 270 kts 56°
2026-04-22 15:44 49.49653 -2.39150 8363 ft 278 kts 41°
2026-04-22 15:44 49.51227 -2.37443 9275 ft 283 kts 37°
2026-04-22 15:44 49.52871 -2.35729 10200 ft 287 kts 36°
2026-04-22 15:44 49.54577 -2.33934 10712 ft 308 kts 37°
2026-04-22 15:45 49.56407 -2.31978 11052 ft 332 kts 37°
2026-04-22 15:45 49.58357 -2.29889 11539 ft 348 kts 36°
2026-04-22 15:45 49.60362 -2.27738 12307 ft 354 kts 36°
2026-04-22 15:45 49.62392 -2.25544 13112 ft 359 kts 36°
2026-04-22 15:46 49.64449 -2.23313 13932 ft 364 kts 36°
2026-04-22 15:46 49.66535 -2.21053 14648 ft 368 kts 35°
2026-04-22 15:46 49.68643 -2.18765 15373 ft 372 kts 36°
2026-04-22 15:46 49.70777 -2.16451 16093 ft 376 kts 36°
2026-04-22 15:47 49.72927 -2.14123 16798 ft 380 kts 36°
2026-04-22 15:47 49.75106 -2.11768 17491 ft 384 kts 36°
2026-04-22 15:47 49.77309 -2.09378 18166 ft 388 kts 36°
2026-04-22 15:47 49.79531 -2.06952 18774 ft 393 kts 36°
2026-04-22 15:48 49.81776 -2.04499 19124 ft 396 kts 36°
2026-04-22 15:48 49.84000 -2.02058 19229 ft 384 kts 36°
2026-04-22 15:48 49.86158 -1.99705 19237 ft 377 kts 36°
2026-04-22 15:48 49.88301 -1.97361 19249 ft 376 kts 36°
2026-04-22 15:49 49.90438 -1.95020 19241 ft 376 kts 35°
2026-04-22 15:49 49.92571 -1.92684 19252 ft 376 kts 36°
2026-04-22 15:49 49.94705 -1.90340 19249 ft 375 kts 36°
2026-04-22 15:49 49.96840 -1.87992 19243 ft 375 kts 36°
2026-04-22 15:50 49.98934 -1.85683 19254 ft 375 kts 35°
2026-04-22 15:50 50.01165 -1.83570 19257 ft 374 kts 28°
2026-04-22 15:50 50.03481 -1.81720 19252 ft 374 kts 27°
2026-04-22 15:50 50.05803 -1.79890 19268 ft 374 kts 27°
2026-04-22 15:51 50.08124 -1.78067 19267 ft 373 kts 27°
2026-04-22 15:51 50.10442 -1.76246 19257 ft 373 kts 27°
2026-04-22 15:51 50.12689 -1.74251 19262 ft 372 kts 35°
2026-04-22 15:51 50.14729 -1.71759 19267 ft 372 kts 39°
2026-04-22 15:52 50.16714 -1.69165 19268 ft 372 kts 40°
2026-04-22 15:52 50.18691 -1.66564 19268 ft 371 kts 40°
2026-04-22 15:52 50.20677 -1.63970 19273 ft 371 kts 39°
2026-04-22 15:52 50.22658 -1.61393 19259 ft 371 kts 39°
2026-04-22 15:53 50.24644 -1.58816 19268 ft 371 kts 39°
2026-04-22 15:53 50.26738 -1.56496 19267 ft 370 kts 28°
2026-04-22 15:53 50.29084 -1.54964 19271 ft 369 kts 18°
2026-04-22 15:53 50.31534 -1.53768 19269 ft 369 kts 17°
2026-04-22 15:54 50.33992 -1.52605 19265 ft 369 kts 17°
2026-04-22 15:54 50.36445 -1.51421 19274 ft 369 kts 17°
2026-04-22 15:54 50.38896 -1.50215 19266 ft 369 kts 17°
2026-04-22 15:54 50.41344 -1.48995 19280 ft 368 kts 17°
2026-04-22 15:55 50.43783 -1.47776 19270 ft 368 kts 17°
2026-04-22 15:55 50.46230 -1.46580 19276 ft 368 kts 17°
2026-04-22 15:55 50.48675 -1.45375 19275 ft 368 kts 17°
2026-04-22 15:55 50.51108 -1.44180 19272 ft 367 kts 17°
2026-04-22 15:56 50.53537 -1.42924 19282 ft 367 kts 21°
2026-04-22 15:56 50.55833 -1.41172 19276 ft 367 kts 27°
2026-04-22 15:56 50.58052 -1.39277 19285 ft 367 kts 28°
2026-04-22 15:56 50.60294 -1.37340 19279 ft 367 kts 28°
2026-04-22 15:57 50.62525 -1.35410 19285 ft 366 kts 28°
2026-04-22 15:57 50.64757 -1.33484 19222 ft 361 kts 28°
2026-04-22 15:57 50.66957 -1.31585 18999 ft 363 kts 28°
2026-04-22 15:57 50.69168 -1.29682 18780 ft 362 kts 28°
2026-04-22 15:58 50.71381 -1.27775 18541 ft 361 kts 28°
2026-04-22 15:58 50.73576 -1.25872 18285 ft 359 kts 28°
2026-04-22 15:58 50.75749 -1.23960 18036 ft 357 kts 30°
2026-04-22 15:58 50.77862 -1.21898 17767 ft 356 kts 32°
2026-04-22 15:59 50.79939 -1.19779 17484 ft 355 kts 33°
2026-04-22 15:59 50.82000 -1.17651 17111 ft 353 kts 33°
2026-04-22 15:59 50.84053 -1.15532 16693 ft 352 kts 34°
2026-04-22 15:59 50.86106 -1.13414 16267 ft 352 kts 34°
2026-04-22 16:00 50.88162 -1.11293 15849 ft 353 kts 34°
2026-04-22 16:00 50.90220 -1.09165 15451 ft 353 kts 35°
2026-04-22 16:00 50.92274 -1.07035 15038 ft 353 kts 35°
2026-04-22 16:00 50.94334 -1.04898 14613 ft 354 kts 36°
2026-04-22 16:01 50.96389 -1.02765 14186 ft 354 kts 36°
2026-04-22 16:01 50.98458 -1.00609 13716 ft 355 kts 36°
2026-04-22 16:01 51.00473 -0.98356 13275 ft 353 kts 44°
2026-04-22 16:01 51.02201 -0.95639 12890 ft 345 kts 51°
2026-04-22 16:02 51.03753 -0.92847 12517 ft 339 kts 52°
2026-04-22 16:02 51.05292 -0.90048 12131 ft 333 kts 52°
2026-04-22 16:02 51.06820 -0.87294 11747 ft 329 kts 52°
2026-04-22 16:02 51.08573 -0.84942 11318 ft 333 kts 33°
2026-04-22 16:03 51.10743 -0.83618 10892 ft 335 kts 18°
2026-04-22 16:03 51.13044 -0.83228 10675 ft 332 kts
2026-04-22 16:03 51.15328 -0.83307 10506 ft 323 kts
2026-04-22 16:03 51.17530 -0.83459 10317 ft 310 kts
2026-04-22 16:04 51.19643 -0.83630 10147 ft 298 kts
2026-04-22 16:04 51.21667 -0.83807 9977 ft 286 kts
2026-04-22 16:04 51.23610 -0.83982 9827 ft 274 kts
2026-04-22 16:04 51.25486 -0.84154 9531 ft 267 kts
2026-04-22 16:05 51.26711 -0.84270 9300 ft 265 kts
2026-04-22 16:05 51.29160 -0.84516 8774 ft 263 kts
2026-04-22 16:05 51.30982 -0.84704 8401 ft 261 kts
2026-04-22 16:05 51.32788 -0.84892 8042 ft 259 kts
2026-04-22 16:06 51.34577 -0.85081 7637 ft 257 kts
2026-04-22 16:06 51.36352 -0.85278 7203 ft 255 kts
2026-04-22 16:06 51.38120 -0.85482 6792 ft 254 kts
2026-04-22 16:06 51.39872 -0.85687 6349 ft 252 kts
2026-04-22 16:07 51.41571 -0.85428 5882 ft 240 kts 26°
2026-04-22 16:07 51.42899 -0.84017 5512 ft 221 kts 54°
2026-04-22 16:07 51.43807 -0.82137 5328 ft 207 kts 60°
2026-04-22 16:07 51.44622 -0.80296 5022 ft 199 kts 60°
2026-04-22 16:08 51.45411 -0.78502 4632 ft 196 kts 60°
2026-04-22 16:08 51.46185 -0.76714 4243 ft 193 kts 60°
2026-04-22 16:08 51.46930 -0.74974 3827 ft 191 kts 60°
2026-04-22 16:08 51.47503 -0.73086 3389 ft 183 kts 78°
2026-04-22 16:09 51.47689 -0.71124 2957 ft 181 kts 87°
2026-04-22 16:09 51.47680 -0.69086 2640 ft 179 kts 89°
2026-04-22 16:09 51.47686 -0.67106 2423 ft 171 kts 89°
2026-04-22 16:09 51.47692 -0.65290 2247 ft 157 kts 89°
2026-04-22 16:10 51.47698 -0.63588 2025 ft 149 kts 89°
2026-04-22 16:10 51.47704 -0.61980 1796 ft 142 kts 89°
2026-04-22 16:10 51.47708 -0.60935 1673 ft 134 kts 89°
2026-04-22 16:10 51.47715 -0.59126 1443 ft 118 kts 89°
2026-04-22 16:11 51.47719 -0.57820 1291 ft 117 kts 89°
2026-04-22 16:11 51.47724 -0.56513 1125 ft 117 kts 89°
2026-04-22 16:11 51.47729 -0.55200 952 ft 119 kts 89°
2026-04-22 16:11 51.47734 -0.53876 768 ft 118 kts 89°
2026-04-22 16:12 51.47736 -0.52561 613 ft 118 kts 88°
2026-04-22 16:12 51.47748 -0.51274 457 ft 113 kts 90°
2026-04-22 16:12 51.47745 -0.50010 316 ft 114 kts 90°
2026-04-22 16:12 51.47753 -0.48739 159 ft 115 kts 90°
2026-04-22 16:13 51.47755 -0.47473 94 ft 106 kts 90°
2026-04-22 16:13 51.47757 -0.46642 96 ft 36 kts 90°
2026-04-22 16:13 51.47759 -0.46329 93 ft 20 kts 89°
2026-04-22 16:13 51.47732 -0.46183 94 ft 11 kts 134°
2026-04-22 16:14 51.47663 -0.46102 93 ft 13 kts 146°
2026-04-22 16:14 51.47603 -0.46075 92 ft 9 kts 222°
2026-04-22 16:14 51.47593 -0.46149 92 ft 3 kts 269°
2026-04-22 16:14 51.47592 -0.46200 92 ft 6 kts 268°
2026-04-22 16:15 51.47592 -0.46278 92 ft 8 kts 270°
2026-04-22 16:15 51.47592 -0.46384 92 ft 11 kts 270°
2026-04-22 16:15 51.47591 -0.46508 92 ft 8 kts 270°
2026-04-22 16:15 51.47591 -0.46609 92 ft 10 kts 269°
2026-04-22 16:16 51.47590 -0.46737 92 ft 13 kts 269°
2026-04-22 16:16 51.47587 -0.46888 92 ft 15 kts 265°
2026-04-22 16:16 51.47581 -0.47034 96 ft 13 kts 270°
2026-04-22 16:16 51.47582 -0.47193 94 ft 15 kts 270°
2026-04-22 16:17 51.47581 -0.47374 95 ft 17 kts 269°
2026-04-22 16:17 51.47580 -0.47577 93 ft 19 kts 270°
2026-04-22 16:17 51.47579 -0.47793 95 ft 12 kts 269°
2026-04-22 16:17 51.47579 -0.47933 94 ft 13 kts 270°
2026-04-22 16:18 51.47578 -0.48056 94 ft 3 kts 269°
2026-04-22 16:18 51.47570 -0.48105 93 ft 6 kts 231°
2026-04-22 16:18 51.47523 -0.48128 94 ft 8 kts 188°
2026-04-22 16:18 51.47487 -0.48207 93 ft 11 kts 262°
2026-04-22 16:19 51.47489 -0.48302 92 ft 9 kts 270°
2026-04-22 16:19 51.47488 -0.48416 92 ft 12 kts 268°
2026-04-22 16:19 51.47486 -0.48558 95 ft 14 kts 270°
2026-04-22 16:19 51.47486 -0.48697 93 ft 10 kts 270°
2026-04-22 16:20 51.47486 -0.48772 95 ft 6 kts 269°
2026-04-22 16:20 51.47486 -0.48815 93 ft 0 kts 269°
2026-04-22 16:20 51.47486 -0.48825 95 ft 2 kts 269°
2026-04-22 16:20 51.47485 -0.48858 94 ft 0 kts 269°
2026-04-22 16:21 51.47485 -0.48862 94 ft 1 kts 269°
2026-04-22 16:21 51.47479 -0.48888 94 ft 4 kts 231°
2026-04-22 16:21 51.47452 -0.48896 92 ft 2 kts 176°
2026-04-22 16:21 51.47427 -0.48894 92 ft 1 kts 179°
2026-04-22 16:22 51.47408 -0.48894 92 ft 0 kts 179°